Debrecen, Hungary

8:21 AM CET on December 12, 2017 (GMT +0100)
Debrecen

Weather History for LHDC - October, 2012

Change the Weather History Date:

Saturday, October 27, 2012

  Actual Average Record
Temperature  
Mean Temperature 53 °F -  
Max Temperature 64 °F 48 °F - ()
Min Temperature 42 °F 35 °F - ()
Degree Days  
Heating Degree Days 12    
Growing Degree Days 3 (Base 50)    
Moisture  
Dew Point 47 °F    
Average Humidity 72    
Maximum Humidity 93    
Minimum Humidity 48    
Precipitation  
Precipitation 0.24 in 0.06 in - ()
Sea Level Pressure  
Sea Level Pressure 29.37 in    
Wind  
Wind Speed 11 mph ()    
Max Wind Speed 23 mph    
Max Gust Speed -    
Visibility 6.2 miles    
Events Rain , Thunderstorm    
T = Trace of Precipitation, MM = Missing Value Source: Averaged Metar Reports

Daily Weather History Graph

Daily Weather History Graph

Search for Another Location

Airport or City:

Trip Planner

Search our weather history database for the weather conditions in past years. The results will help you decide how hot, cold, wet, or windy it might be!

Date:

Astronomy

Oct. 27, 2012 Rise Set
Actual Time 7:10 AM CEST 5:23 PM CEST
Civil Twilight 6:38 AM CEST 5:55 PM CEST
Nautical Twilight 6:02 AM CEST 6:31 PM CEST
Astronomical Twilight 5:26 AM CEST 7:07 PM CEST
Moon 4:06 PM CEST (10/27) 4:39 AM CEST (10/27)
Length of Visible Light 11h 17m
Length of Day
10h 13m
Waxing Gibbous, 95% of the Moon is Illuminated
Oct 27
Waxing Gibbous
Oct 29
Full
Nov 7
Last Quarter
Nov 13
New
Nov 20
First Quarter

Hourly Weather History & Observations

Time (CEST) Temp. Windchill Dew Point Humidity Pressure Visibility Wind Dir Wind Speed Gust Speed Precip Events Conditions
2:00 AM 45 °F - 42 °F 86% 29.67 in - ENE 6.7 mph - -  
4:45 AM 42.8 °F 38.6 °F 41.0 °F 93% 29.56 in - East 6.9 mph - N/A   Clear
5:45 AM 44.6 °F 40.2 °F 41.0 °F 87% 29.50 in - East 8.1 mph - N/A   Clear
6:15 AM 44.6 °F 40.2 °F 41.0 °F 87% 29.50 in - East 8.1 mph - N/A   Clear
6:45 AM 44.6 °F 40.7 °F 41.0 °F 87% 29.47 in - East 6.9 mph - N/A   Clear
7:00 AM - - - N/A% - - East 9.2 mph - N/A Rain Light Rain
7:15 AM 44.6 °F 41.4 °F 41.0 °F 87% 29.47 in - East 5.8 mph - N/A   Clear
7:45 AM 48.2 °F - 41.0 °F 76% 29.44 in - ESE 8.1 mph - N/A   Clear
8:00 AM 48 °F - 42 °F 72% 29.46 in 6 mi ESE 6.7 mph - -   Partly Cloudy
8:15 AM 50.0 °F - 42.8 °F 76% 29.44 in - ESE 6.9 mph - N/A   Clear
8:45 AM 50.0 °F - 42.8 °F 76% 29.42 in - ESE 6.9 mph - N/A   Clear
9:15 AM 53.6 °F - 44.6 °F 72% 29.42 in - ESE 6.9 mph - N/A   Clear
10:00 AM - - - N/A% - - ESE 12.7 mph - N/A Rain Light Rain
10:15 AM 60.8 °F - 44.6 °F 55% 29.39 in - SSE 12.7 mph - N/A   Clear
10:36 AM 62.6 °F - 42.8 °F 48% 29.39 in - South 18.4 mph - N/A   Unknown
10:45 AM 62.6 °F - 42.8 °F 48% 29.39 in - South 18.4 mph - N/A   Clear
11:15 AM 62.6 °F - 42.8 °F 48% 29.39 in 6.2 mi South 21.9 mph - N/A Rain Light Rain
11:45 AM 60.8 °F - 44.6 °F 55% 29.39 in 5.6 mi South 19.6 mph - N/A Rain Light Rain
11:49 AM 59.0 °F - 48.2 °F 67% 29.39 in - South 23.0 mph - N/A   Unknown
12:00 PM - - - N/A% - 6.2 mi South 18.4 mph - N/A   Overcast
12:15 PM 57.2 °F - 48.2 °F 72% 29.36 in 5.6 mi South 16.1 mph - N/A Rain Light Rain
12:45 PM 59.0 °F - 50.0 °F 72% 29.36 in 6.2 mi South 12.7 mph - N/A   Overcast
1:00 PM - - - N/A% - 6.2 mi South 17.3 mph - N/A   Overcast
1:15 PM 59.0 °F - 50.0 °F 72% 29.33 in 6.2 mi South 17.3 mph - N/A   Overcast
1:45 PM 60.8 °F - 48.2 °F 63% 29.33 in 6.2 mi South 18.4 mph - N/A Rain Light Rain
2:00 PM 61 °F - 48 °F 53% 29.31 in 9 mi South 17.9 mph - - Rain Light Rain
2:15 PM 62.6 °F - 48.2 °F 59% 29.30 in 6.2 mi South 17.3 mph - N/A   Overcast
2:45 PM 62.6 °F - 48.2 °F 59% 29.30 in 6.2 mi South 19.6 mph - N/A   Overcast
3:15 PM 62.6 °F - 48.2 °F 59% 29.30 in - South 18.4 mph - N/A   Clear
3:45 PM 64.4 °F - 50.0 °F 59% 29.27 in 6.2 mi South 21.9 mph - N/A   Mostly Cloudy
4:00 PM - - - N/A% - 6.2 mi South 17.3 mph - N/A   Overcast
4:15 PM 64.4 °F - 50.0 °F 59% 29.27 in 6.2 mi South 19.6 mph - N/A   Mostly Cloudy
4:45 PM 62.6 °F - 51.8 °F 68% 29.27 in 6.2 mi South 17.3 mph - N/A Rain Light Rain Showers
5:15 PM 60.8 °F - 51.8 °F 72% 29.27 in 6.2 mi SSW 17.3 mph - N/A Rain Light Rain Showers
5:45 PM 60.8 °F - 51.8 °F 72% 29.27 in 6.2 mi South 17.3 mph - N/A Rain Light Rain
6:15 PM 59.0 °F - 51.8 °F 77% 29.27 in 6.2 mi South 13.8 mph - N/A Rain Light Rain
6:45 PM 59.0 °F - 53.6 °F 82% 29.30 in 6.2 mi SSW 17.3 mph - N/A Rain Rain Showers
6:54 PM 57.2 °F - 53.6 °F 88% 29.30 in 6.2 mi SSW 17.3 mph - N/A Rain , Thunderstorm Thunderstorms and Rain
7:02 PM 57.2 °F - 53.6 °F 88% 29.30 in - SSW 18.4 mph - N/A   Unknown
7:15 PM 57.2 °F - 53.6 °F 88% 29.30 in 5.0 mi South 19.6 mph - N/A Rain Light Rain Showers
7:45 PM 57.2 °F - 53.6 °F 88% 29.30 in 6.2 mi South 13.8 mph - N/A Rain Light Rain Showers
8:00 PM 58 °F - 53 °F 77% 29.30 in 6 mi South 13.4 mph - - Rain Light Rain Showers
8:00 PM - - - N/A% - - North - - N/A   Unknown